Time,TemperatureF,DewpointF,PressureIn,WindDirection,WindDirectionDegrees,WindSpeedMPH,WindSpeedGustMPH,Humidity,HourlyPrecipIn,Conditions,Clouds,dailyrainin,SoftwareType,DateUTC
2013-06-05 00:07:00,52.5,51.0,30.04,WNW,288,0.0,-999.0,96,-99.99,,,0.00,weatherlink.com 1.10,2013-06-05 05:07:00,
2013-06-05 00:21:00,52.5,51.0,30.03,WNW,288,0.0,-999.0,96,-99.99,,,0.00,weatherlink.com 1.10,2013-06-05 05:21:00,
2013-06-05 00:36:00,52.5,51.0,30.03,WNW,288,0.0,-999.0,96,-99.99,,,0.00,weatherlink.com 1.10,2013-06-05 05:36:00,
2013-06-05 00:51:00,52.5,52.0,30.02,WNW,288,0.0,-999.0,97,-99.99,,,0.00,weatherlink.com 1.10,2013-06-05 05:51:00,
2013-06-05 01:07:00,52.3,52.0,30.02,WNW,288,0.0,-999.0,97,-99.99,,,0.00,weatherlink.com 1.10,2013-06-05 06:07:00,
2013-06-05 01:21:00,52.3,52.0,30.02,WNW,288,0.0,-999.0,97,-99.99,,,0.00,weatherlink.com 1.10,2013-06-05 06:21:00,
2013-06-05 01:36:00,52.2,51.0,30.02,WNW,288,0.0,-999.0,97,-99.99,,,0.00,weatherlink.com 1.10,2013-06-05 06:36:00,
2013-06-05 01:51:00,52.0,51.0,30.01,WNW,288,0.0,-999.0,97,-99.99,,,0.00,weatherlink.com 1.10,2013-06-05 06:51:00,
2013-06-05 02:07:00,52.0,51.0,30.01,WNW,288,0.0,-999.0,97,-99.99,,,0.00,weatherlink.com 1.10,2013-06-05 07:07:00,
2013-06-05 02:21:00,52.0,51.0,30.01,WNW,288,0.0,-999.0,97,-99.99,,,0.00,weatherlink.com 1.10,2013-06-05 07:21:00,
2013-06-05 02:36:00,51.9,51.0,30.01,WNW,288,0.0,-999.0,97,-99.99,,,0.00,weatherlink.com 1.10,2013-06-05 07:36:00,
2013-06-05 02:51:00,51.7,51.0,30.01,SE,132,0.0,-999.0,97,-99.99,,,0.00,weatherlink.com 1.10,2013-06-05 07:51:00,
2013-06-05 03:07:00,51.6,51.0,29.99,SW,224,0.0,-999.0,97,-99.99,,,0.00,weatherlink.com 1.10,2013-06-05 08:07:00,
2013-06-05 03:22:00,51.4,51.0,29.98,SE,127,0.0,-999.0,97,-99.99,,,0.00,weatherlink.com 1.10,2013-06-05 08:22:00,
2013-06-05 03:37:00,51.4,51.0,29.99,ESE,109,0.0,-999.0,97,-99.99,,,0.00,weatherlink.com 1.10,2013-06-05 08:37:00,
2013-06-05 03:52:00,51.3,51.0,29.99,ESE,109,0.0,-999.0,97,-99.99,,,0.00,weatherlink.com 1.10,2013-06-05 08:52:00,
2013-06-05 04:07:00,51.3,51.0,30.01,ESE,109,2.0,-999.0,97,-99.99,,,0.08,weatherlink.com 1.10,2013-06-05 09:07:00,
2013-06-05 04:22:00,51.3,51.0,30.00,ESE,109,0.0,-999.0,97,-99.99,,,0.35,weatherlink.com 1.10,2013-06-05 09:22:00,
2013-06-05 04:37:00,51.1,50.0,30.00,ESE,109,2.0,-999.0,97,-99.99,,,0.49,weatherlink.com 1.10,2013-06-05 09:37:00,
2013-06-05 04:52:00,51.0,50.0,29.97,West,268,0.0,-999.0,97,-99.99,,,0.58,weatherlink.com 1.10,2013-06-05 09:52:00,
2013-06-05 05:06:00,51.0,50.0,29.98,West,268,0.0,-999.0,97,-99.99,,,0.59,weatherlink.com 1.10,2013-06-05 10:06:00,
2013-06-05 05:21:00,51.1,50.0,29.98,West,268,0.0,-999.0,97,-99.99,,,0.60,weatherlink.com 1.10,2013-06-05 10:21:00,
2013-06-05 05:52:00,51.1,50.0,29.99,NW,306,0.0,-999.0,97,-99.99,,,0.60,weatherlink.com 1.10,2013-06-05 10:52:00,
2013-06-05 06:07:00,51.1,51.0,29.98,WNW,300,0.0,-999.0,98,-99.99,,,0.60,weatherlink.com 1.10,2013-06-05 11:07:00,
2013-06-05 06:22:00,51.1,51.0,29.98,SSW,197,0.0,-999.0,98,-99.99,,,0.61,weatherlink.com 1.10,2013-06-05 11:22:00,
2013-06-05 06:37:00,51.1,51.0,29.99,NW,306,0.0,-999.0,98,-99.99,,,0.61,weatherlink.com 1.10,2013-06-05 11:37:00,
2013-06-05 06:52:00,51.3,51.0,29.99,NE,41,0.0,-999.0,98,-99.99,,,0.61,weatherlink.com 1.10,2013-06-05 11:52:00,
2013-06-05 07:22:00,51.3,51.0,29.98,East,98,0.0,-999.0,98,-99.99,,,0.61,weatherlink.com 1.10,2013-06-05 12:22:00,
2013-06-05 07:37:00,51.4,51.0,29.96,East,98,0.0,-999.0,98,-99.99,,,0.61,weatherlink.com 1.10,2013-06-05 12:37:00,
2013-06-05 07:52:00,51.7,51.0,29.96,South,181,0.0,-999.0,98,-99.99,,,0.61,weatherlink.com 1.10,2013-06-05 12:52:00,
2013-06-05 08:07:00,51.7,51.0,29.98,SSW,205,0.0,-999.0,98,-99.99,,,0.61,weatherlink.com 1.10,2013-06-05 13:07:00,
2013-06-05 08:22:00,51.9,51.0,29.97,SSW,205,0.0,-999.0,98,-99.99,,,0.61,weatherlink.com 1.10,2013-06-05 13:22:00,
2013-06-05 08:37:00,52.0,52.0,29.97,West,260,0.0,-999.0,98,-99.99,,,0.61,weatherlink.com 1.10,2013-06-05 13:37:00,
2013-06-05 08:52:00,52.2,52.0,29.97,ESE,108,0.0,-999.0,98,-99.99,,,0.61,weatherlink.com 1.10,2013-06-05 13:52:00,
2013-06-05 09:07:00,52.3,52.0,29.97,SW,219,0.0,-999.0,98,-99.99,,,0.61,weatherlink.com 1.10,2013-06-05 14:07:00,
2013-06-05 09:22:00,52.3,52.0,29.98,SSW,205,0.0,-999.0,98,-99.99,,,0.61,weatherlink.com 1.10,2013-06-05 14:22:00,
2013-06-05 09:37:00,52.3,52.0,29.96,ESE,105,0.0,-999.0,98,-99.99,,,0.61,weatherlink.com 1.10,2013-06-05 14:37:00,
2013-06-05 09:52:00,52.5,52.0,29.96,ESE,105,0.0,-999.0,98,-99.99,,,0.61,weatherlink.com 1.10,2013-06-05 14:52:00,
2013-06-05 10:08:00,52.5,52.0,29.96,SE,136,0.0,-999.0,98,-99.99,,,0.61,weatherlink.com 1.10,2013-06-05 15:08:00,
2013-06-05 10:23:00,52.3,52.0,29.96,SE,135,0.0,-999.0,98,-99.99,,,0.61,weatherlink.com 1.10,2013-06-05 15:23:00,
2013-06-05 10:38:00,52.6,52.0,29.95,South,188,0.0,-999.0,98,-99.99,,,0.61,weatherlink.com 1.10,2013-06-05 15:38:00,
2013-06-05 10:53:00,52.8,52.0,29.95,WSW,245,0.0,-999.0,98,-99.99,,,0.61,weatherlink.com 1.10,2013-06-05 15:53:00,
2013-06-05 11:08:00,52.8,52.0,29.95,WSW,245,0.0,-999.0,98,-99.99,,,0.61,weatherlink.com 1.10,2013-06-05 16:08:00,
2013-06-05 11:23:00,52.6,52.0,29.96,WSW,245,0.0,-999.0,98,-99.99,,,0.61,weatherlink.com 1.10,2013-06-05 16:23:00,
2013-06-05 11:38:00,52.5,52.0,29.95,WSW,238,0.0,-999.0,98,-99.99,,,0.63,weatherlink.com 1.10,2013-06-05 16:38:00,
2013-06-05 11:53:00,52.3,52.0,29.95,WSW,238,0.0,-999.0,98,-99.99,,,0.68,weatherlink.com 1.10,2013-06-05 16:53:00,
2013-06-05 12:07:00,52.8,52.0,29.94,WSW,238,0.0,-999.0,98,-99.99,,,0.68,weatherlink.com 1.10,2013-06-05 17:07:00,
2013-06-05 12:22:00,53.3,53.0,29.95,SW,222,0.0,-999.0,100,-99.99,,,0.69,weatherlink.com 1.10,2013-06-05 17:22:00,
2013-06-05 12:37:00,53.6,54.0,29.95,SW,222,0.0,-999.0,100,-99.99,,,0.69,weatherlink.com 1.10,2013-06-05 17:37:00,
2013-06-05 12:53:00,53.5,54.0,29.94,SE,127,1.0,-999.0,100,-99.99,,,0.69,weatherlink.com 1.10,2013-06-05 17:53:00,
2013-06-05 13:08:00,53.3,53.0,29.94,SE,127,0.0,-999.0,99,-99.99,,,0.69,weatherlink.com 1.10,2013-06-05 18:08:00,
2013-06-05 13:23:00,53.5,54.0,29.94,SW,216,0.0,-999.0,100,-99.99,,,0.69,weatherlink.com 1.10,2013-06-05 18:23:00,
2013-06-05 13:38:00,53.6,54.0,29.93,SW,218,0.0,-999.0,100,-99.99,,,0.69,weatherlink.com 1.10,2013-06-05 18:38:00,
2013-06-05 13:53:00,53.6,54.0,29.94,SSW,202,0.0,-999.0,100,-99.99,,,0.69,weatherlink.com 1.10,2013-06-05 18:53:00,
2013-06-05 14:09:00,53.6,54.0,29.93,SSW,202,0.0,-999.0,100,-99.99,,,0.69,weatherlink.com 1.10,2013-06-05 19:09:00,
2013-06-05 14:23:00,53.6,53.0,29.92,SSW,202,0.0,-999.0,99,-99.99,,,0.69,weatherlink.com 1.10,2013-06-05 19:23:00,
2013-06-05 14:38:00,53.5,53.0,29.91,South,175,0.0,-999.0,99,-99.99,,,0.69,weatherlink.com 1.10,2013-06-05 19:38:00,
2013-06-05 14:53:00,53.5,53.0,29.91,SSE,166,0.0,-999.0,99,-99.99,,,0.69,weatherlink.com 1.10,2013-06-05 19:53:00,
2013-06-05 15:08:00,53.5,53.0,29.91,West,261,0.0,-999.0,99,-99.99,,,0.69,weatherlink.com 1.10,2013-06-05 20:08:00,
2013-06-05 15:23:00,53.5,53.0,29.91,West,261,0.0,-999.0,99,-99.99,,,0.69,weatherlink.com 1.10,2013-06-05 20:23:00,
2013-06-05 15:38:00,53.5,53.0,29.91,West,261,0.0,-999.0,99,-99.99,,,0.69,weatherlink.com 1.10,2013-06-05 20:38:00,
2013-06-05 15:53:00,53.6,54.0,29.90,West,261,0.0,-999.0,100,-99.99,,,0.69,weatherlink.com 1.10,2013-06-05 20:53:00,
2013-06-05 16:08:00,53.8,54.0,29.90,West,261,0.0,-999.0,100,-99.99,,,0.70,weatherlink.com 1.10,2013-06-05 21:08:00,
2013-06-05 16:23:00,53.9,54.0,29.90,West,261,0.0,-999.0,100,-99.99,,,0.70,weatherlink.com 1.10,2013-06-05 21:23:00,
2013-06-05 16:38:00,54.4,54.0,29.90,West,261,0.0,-999.0,100,-99.99,,,0.71,weatherlink.com 1.10,2013-06-05 21:38:00,
2013-06-05 16:53:00,54.7,55.0,29.89,West,261,0.0,-999.0,100,-99.99,,,0.71,weatherlink.com 1.10,2013-06-05 21:53:00,
2013-06-05 17:09:00,54.8,55.0,29.90,West,261,0.0,-999.0,100,-99.99,,,0.71,weatherlink.com 1.10,2013-06-05 22:09:00,
2013-06-05 17:24:00,54.7,55.0,29.90,West,261,0.0,-999.0,100,-99.99,,,0.71,weatherlink.com 1.10,2013-06-05 22:24:00,
2013-06-05 17:39:00,54.7,55.0,29.90,West,261,0.0,-999.0,100,-99.99,,,0.71,weatherlink.com 1.10,2013-06-05 22:39:00,
2013-06-05 17:54:00,54.8,55.0,29.90,West,261,0.0,-999.0,100,-99.99,,,0.71,weatherlink.com 1.10,2013-06-05 22:54:00,
2013-06-05 18:09:00,54.8,55.0,29.89,West,261,0.0,-999.0,100,-99.99,,,0.71,weatherlink.com 1.10,2013-06-05 23:09:00,
2013-06-05 18:24:00,55.0,55.0,29.88,West,261,0.0,-999.0,100,-99.99,,,0.72,weatherlink.com 1.10,2013-06-05 23:24:00,
2013-06-05 18:39:00,55.1,55.0,29.88,West,261,0.0,-999.0,100,-99.99,,,0.72,weatherlink.com 1.10,2013-06-05 23:39:00,
2013-06-05 18:54:00,55.1,55.0,29.88,West,261,0.0,-999.0,100,-99.99,,,0.72,weatherlink.com 1.10,2013-06-05 23:54:00,
2013-06-05 19:09:00,55.1,55.0,29.88,West,261,0.0,-999.0,100,-99.99,,,0.72,weatherlink.com 1.10,2013-06-06 00:09:00,
2013-06-05 19:24:00,55.1,55.0,29.88,West,261,0.0,-999.0,100,-99.99,,,0.72,weatherlink.com 1.10,2013-06-06 00:24:00,
2013-06-05 19:39:00,55.3,55.0,29.88,West,261,0.0,-999.0,100,-99.99,,,0.72,weatherlink.com 1.10,2013-06-06 00:39:00,
2013-06-05 19:54:00,55.3,55.0,29.88,West,261,0.0,-999.0,100,-99.99,,,0.72,weatherlink.com 1.10,2013-06-06 00:54:00,
2013-06-05 20:09:00,55.3,55.0,29.88,West,261,0.0,-999.0,100,-99.99,,,0.72,weatherlink.com 1.10,2013-06-06 01:09:00,
2013-06-05 20:24:00,55.3,55.0,29.88,West,261,0.0,-999.0,100,-99.99,,,0.72,weatherlink.com 1.10,2013-06-06 01:24:00,
2013-06-05 20:39:00,55.1,55.0,29.88,West,261,0.0,-999.0,100,-99.99,,,0.72,weatherlink.com 1.10,2013-06-06 01:39:00,
2013-06-05 20:54:00,55.1,55.0,29.88,West,261,0.0,-999.0,100,-99.99,,,0.72,weatherlink.com 1.10,2013-06-06 01:54:00,
2013-06-05 21:09:00,55.0,55.0,29.88,West,261,0.0,-999.0,100,-99.99,,,0.73,weatherlink.com 1.10,2013-06-06 02:09:00,
2013-06-05 21:24:00,55.0,55.0,29.88,West,261,0.0,-999.0,100,-99.99,,,0.73,weatherlink.com 1.10,2013-06-06 02:24:00,
2013-06-05 21:39:00,55.0,55.0,29.88,West,261,0.0,-999.0,100,-99.99,,,0.73,weatherlink.com 1.10,2013-06-06 02:39:00,
2013-06-05 21:54:00,54.8,55.0,29.88,West,261,0.0,-999.0,100,-99.99,,,0.73,weatherlink.com 1.10,2013-06-06 02:54:00,
2013-06-05 22:09:00,54.8,55.0,29.88,West,261,0.0,-999.0,100,-99.99,,,0.73,weatherlink.com 1.10,2013-06-06 03:09:00,
2013-06-05 22:24:00,54.8,55.0,29.88,West,261,0.0,-999.0,100,-99.99,,,0.74,weatherlink.com 1.10,2013-06-06 03:24:00,
2013-06-05 22:39:00,54.8,55.0,29.88,West,259,0.0,-999.0,100,-99.99,,,0.74,weatherlink.com 1.10,2013-06-06 03:39:00,
2013-06-05 22:54:00,54.5,55.0,29.88,SE,146,1.0,-999.0,100,-99.99,,,0.75,weatherlink.com 1.10,2013-06-06 03:54:00,
2013-06-05 23:10:00,53.9,54.0,29.88,SE,146,0.0,-999.0,99,-99.99,,,0.75,weatherlink.com 1.10,2013-06-06 04:10:00,
2013-06-05 23:25:00,53.3,53.0,29.88,SE,146,0.0,-999.0,99,-99.99,,,0.75,weatherlink.com 1.10,2013-06-06 04:25:00,
2013-06-05 23:40:00,52.9,53.0,29.88,SE,146,0.0,-999.0,99,-99.99,,,0.75,weatherlink.com 1.10,2013-06-06 04:40:00,
2013-06-05 23:55:00,52.6,52.0,29.88,SE,146,0.0,-999.0,99,-99.99,,,0.75,weatherlink.com 1.10,2013-06-06 04:55:00,